This demonstration page uses our WeatherBlox Daily Observations layout. Learn more.

Left ArrowRight Arrow

34.74481, -87.66753

Hourly Observations for April 17, 2021

Temp ( °F °C ) Dew Point ( °F °C ) Humidity (%) Winds ( mph kmh ) Pressure ( in mb ) Visibility ( mi km ) Precip ( " mm )
12:53 am 00:53 Partly Cloudy 55 12.8 47 8.3 74 74 W 3 6 29.87 1012 10 16 0.00 0.00
1:53 am 01:53 Cloudy 56 13.3 46 7.8 70 70 Calm 29.88 1012 10 16 0.00 0.00
2:53 am 02:53 Cloudy 56 13.3 45 7.2 67 67 Calm 29.86 1011 10 16 0.00 0.00
3:53 am 03:53 Cloudy 55 12.8 47 8.3 74 74 WNW 3 6 29.85 1011 10 16 0.00 0.00
4:53 am 04:53 Cloudy 55 12.8 47 8.3 74 74 NW 3 6 29.85 1011 10 16 0.00 0.00
5:53 am 05:53 Cloudy 56 13.3 46 7.8 70 70 NW 3 6 29.86 1011 10 16 0.00 0.00
6:53 am 06:53 Cloudy with Light Rain 56 13.3 47 8.3 72 72 Calm 29.88 1012 10 16 0.00 0.00
7:53 am 07:53 Cloudy 58 14.4 47 8.3 67 67 Calm 29.88 1012 10 16 0.00 0.00
8:53 am 08:53 Cloudy 60 15.6 45 7.2 58 58 Calm 29.89 1012 10 16 0.00 0.00
9:53 am 09:53 Mostly Cloudy 63 17.2 42 5.6 47 47 ESE 3 6 29.89 1012 10 16 0.00 0.00
10:53 am 10:53 Cloudy 65 18.3 44 6.7 47 47 WNW 7 11 29.91 1013 10 16 0.00 0.00
11:53 am 11:53 Cloudy 65 18.3 46 7.8 51 51 NW 8 13 29.90 1013 10 16 0.00 0.00
12:53 pm 12:53 Cloudy 67 19.4 45 7.2 45 45 WNW 8 13 29.88 1012 10 16 0.00 0.00
1:53 pm 13:53 Cloudy 69 20.6 47 8.3 45 45 WNW 15 24 29.87 1012 10 16 0.00 0.00
2:53 pm 14:53 Mostly Cloudy 69 20.6 45 7.2 42 42 NW 9 15 29.87 1012 10 16 0.00 0.00
3:53 pm 15:53 Cloudy 67 19.4 44 6.7 44 44 WNW 9 15 29.88 1012 10 16 0.00 0.00
4:53 pm 16:53 Mostly Cloudy 67 19.4 44 6.7 44 44 NW 12 19 29.89 1012 10 16 0.00 0.00
5:53 pm 17:53 Mostly Cloudy 64 17.8 43 6.1 46 46 NNW 9 15 29.90 1013 10 16 0.00 0.00
6:53 pm 18:53 Cloudy 63 17.2 42 5.6 47 47 NW 6 9 29.91 1013 10 16 0.00 0.00
7:53 pm 19:53 Clear 59 15 42 5.6 54 54 NNW 5 7 29.92 1013 10 16 0.00 0.00
8:53 pm 20:53 Clear 57 13.9 42 5.6 58 58 NNW 5 7 29.95 1014 10 16 0.00 0.00
9:53 pm 21:53 Clear 56 13.3 43 6.1 62 62 NW 5 7 29.96 1015 10 16 0.00 0.00
10:53 pm 22:53 Clear 53 11.7 43 6.1 69 69 W 5 7 29.97 1015 10 16 0.00 0.00
11:53 pm 23:53 Clear 51 10.6 42 5.6 71 71 Calm 29.98 1015 10 16 0.00 0.00

Powered by AerisWeather